Date,TemperatureHighF,TemperatureAvgF,TemperatureLowF,DewpointHighF,DewpointAvgF,DewpointLowF,HumidityHigh,HumidityAvg,HumidityLow,PressureMaxIn,PressureMinIn,WindSpeedMaxMPH,WindSpeedAvgMPH,GustSpeedMaxMPH,PrecipitationSumIn
2013-1-1,73,60,53,100,88,80,0,0,100,30.30,29.99,22,10,22,2.20
2013-1-2,53,49,47,80,76,73,0,0,100,30.42,30.26,18,9,20,0.06
2013-1-3,59,51,44,86,77,70,0,0,100,30.52,30.39,20,9,20,0.00
2013-1-4,54,51,48,81,77,75,0,0,100,30.61,30.45,16,6,16,0.00
2013-1-5,51,49,48,78,76,74,0,0,100,30.50,30.37,18,6,18,0.53
2013-1-6,61,53,48,89,80,74,0,0,100,30.45,30.33,20,8,20,0.01
2013-1-7,60,52,43,88,79,69,0,0,100,30.44,30.21,15,3,15,0.00
2013-1-8,68,61,56,96,89,83,0,0,100,30.22,30.03,24,6,24,0.31
2013-1-9,70,67,64,100,96,92,0,0,100,30.17,30.02,24,8,24,2.85
2013-1-10,70,65,58,100,94,85,0,0,100,30.20,30.05,14,2,14,0.37
2013-1-11,75,64,53,100,92,80,0,0,100,30.17,30.01,13,2,13,0.08
2013-1-12,78,76,74,100,100,100,0,0,100,30.03,29.86,20,5,20,0.01
2013-1-13,77,59,51,100,86,78,0,0,100,30.25,29.86,26,11,26,0.25
2013-1-14,54,50,46,81,77,73,0,0,100,30.34,30.17,23,10,23,0.09
2013-1-15,49,46,44,76,72,70,0,0,100,30.27,30.14,26,10,26,0.21
2013-1-16,60,50,44,87,76,70,0,0,100,30.39,30.23,22,8,22,0.00
2013-1-17,68,55,42,97,82,68,0,0,100,30.58,30.39,16,3,16,0.00
2013-1-18,68,57,49,97,85,76,0,0,100,30.65,30.48,11,2,13,0.00
2013-1-19,72,59,47,100,87,74,0,0,100,30.50,30.30,10,1,10,0.00
2013-1-20,76,63,53,100,90,80,0,0,100,30.37,30.21,13,1,13,0.01
2013-1-21,76,64,54,100,91,81,0,0,100,30.33,30.25,6,0,7,0.01
2013-1-22,76,63,51,100,90,78,0,0,100,30.45,30.32,10,2,10,0.00
2013-1-23,78,68,57,100,95,84,0,0,100,30.46,30.35,16,2,16,0.01
2013-1-24,78,71,65,100,98,93,0,0,100,30.41,30.28,17,3,17,0.01
2013-1-25,82,73,67,100,99,96,0,0,100,30.30,30.18,24,4,24,0.01
2013-1-26,82,73,65,100,98,94,0,0,100,30.31,30.21,15,2,15,0.01
2013-1-27,82,76,71,100,100,100,0,0,100,30.27,30.18,19,5,19,0.00
2013-1-28,83,79,76,100,100,100,0,0,100,30.24,30.11,16,4,16,0.00
2013-1-29,85,80,77,100,100,100,0,0,100,30.11,29.76,25,6,25,0.02
2013-1-30,72,64,52,100,93,79,0,0,100,30.34,29.79,33,7,33,0.03
2013-1-31,71,59,48,100,87,75,0,0,100,30.43,30.33,21,2,21,0.00
2013-2-1,75,64,56,100,92,83,0,0,100,30.50,30.37,16,1,16,0.00
2013-2-2,79,67,56,100,94,83,0,0,100,30.38,30.25,13,2,13,0.00
2013-2-3,78,68,60,100,96,87,0,0,100,30.41,30.20,15,3,15,0.01
2013-2-4,76,71,63,100,98,91,0,0,100,30.20,29.96,13,3,13,0.01
2013-2-5,84,76,71,100,100,100,0,0,100,30.11,29.98,14,2,14,1.02
2013-2-6,73,71,69,100,100,98,0,0,100,30.16,29.98,27,6,27,0.53
2013-2-7,76,70,67,100,98,96,0,0,100,30.09,29.98,11,1,11,0.00
2013-2-8,75,69,62,100,97,90,0,0,100,30.26,30.08,20,7,20,0.00
2013-2-9,75,67,58,100,95,85,0,0,100,30.26,30.03,22,6,22,0.00
2013-2-10,83,75,70,100,100,99,0,0,100,30.06,29.88,29,6,29,0.11
2013-2-11,72,64,61,100,93,89,0,0,100,30.20,30.05,22,8,22,0.74
2013-2-12,78,67,63,100,95,91,0,0,100,30.10,29.85,20,5,20,0.13
2013-2-13,67,61,54,95,89,81,0,0,100,30.22,30.04,22,7,22,0.04
2013-2-14,72,59,48,100,87,74,0,0,100,30.26,30.14,10,1,10,0.00
2013-2-15,74,61,52,100,89,78,0,0,100,30.41,30.19,26,6,26,0.01
2013-2-16,66,56,47,95,84,74,0,0,100,30.53,30.34,21,7,21,0.00
2013-2-17,73,60,49,100,87,75,0,0,100,30.40,30.26,23,3,23,0.00
2013-2-18,74,71,61,100,99,89,0,0,100,30.16,29.98,32,9,32,0.62
2013-2-19,72,63,55,100,91,83,0,0,100,30.35,30.15,22,7,22,0.02
2013-2-20,63,60,54,92,88,82,0,0,100,30.29,29.99,26,10,26,0.00
2013-2-21,79,71,63,100,98,91,0,0,100,29.99,29.77,26,8,26,0.03
2013-2-22,71,65,60,100,94,87,0,0,100,30.08,29.94,17,6,17,0.00
2013-2-23,73,62,54,100,90,81,0,0,100,30.10,29.97,16,4,16,0.00
2013-2-24,71,63,51,100,91,78,0,0,100,30.06,29.79,16,4,16,0.05
2013-2-25,79,69,55,100,96,82,0,0,100,29.82,29.55,30,7,30,0.49
2013-2-26,70,59,50,99,86,76,0,0,100,30.05,29.82,28,6,28,0.00
2013-2-27,78,64,53,100,91,80,0,0,100,30.24,30.03,29,6,29,0.00
2013-2-28,61,54,48,89,81,74,0,0,100,30.37,30.22,22,8,22,0.00
2013-3-1,67,57,44,96,84,70,0,0,100,30.36,30.21,22,6,22,0.00
2013-3-2,57,51,44,85,78,70,0,0,100,30.44,30.32,29,9,29,0.00
2013-3-3,66,54,40,94,81,65,0,0,100,30.41,30.16,16,2,16,0.00
2013-3-4,78,68,59,100,96,86,0,0,100,30.16,29.92,33,8,33,0.00
2013-3-5,73,68,55,100,96,82,0,0,100,30.40,29.94,30,9,30,0.00
2013-3-6,70,56,44,98,83,70,0,0,100,30.51,30.33,18,5,18,0.00
2013-3-7,68,58,46,97,85,72,0,0,100,30.42,30.30,14,2,14,0.00
2013-3-8,72,62,52,100,90,79,0,0,100,30.35,30.19,17,5,17,0.00
2013-3-9,75,68,63,100,96,91,0,0,100,30.20,29.92,23,7,23,0.00
2013-3-10,74,64,57,100,92,84,0,0,100,30.11,29.88,27,7,27,0.10
2013-3-11,63,55,48,91,82,74,0,0,100,30.22,30.05,31,8,31,0.00
2013-3-12,72,57,44,100,84,70,0,0,100,30.37,30.19,12,2,12,0.00
2013-3-13,73,60,49,100,88,76,0,0,100,30.53,30.37,17,3,17,0.00
2013-3-14,71,60,48,100,88,74,0,0,100,30.52,30.39,16,2,16,0.00
2013-3-15,75,65,53,100,93,80,0,0,100,30.41,30.19,23,5,23,0.00
2013-3-16,76,68,62,100,96,90,0,0,100,30.19,29.99,24,5,24,0.01
2013-3-17,77,71,66,100,98,94,0,0,100,30.01,29.83,19,3,19,0.00
2013-3-18,87,76,69,100,100,98,0,0,100,29.99,29.81,17,3,17,0.00
2013-3-19,81,73,64,100,99,92,0,0,100,30.09,29.98,21,6,21,0.00
2013-3-20,79,70,60,100,96,88,0,0,100,30.28,30.05,25,9,25,0.30
2013-3-21,75,69,60,100,96,88,0,0,100,30.16,29.84,24,5,24,0.00
2013-3-22,85,77,72,100,100,100,0,0,100,29.87,29.77,21,5,21,0.00
2013-3-23,81,76,74,100,100,100,0,0,100,29.85,29.66,12,2,12,0.01
2013-3-24,75,66,55,100,94,82,0,0,100,30.23,29.72,30,12,30,0.00
2013-3-25,66,57,47,95,84,73,0,0,100,30.46,30.23,22,10,22,0.00
2013-3-26,66,56,45,94,83,70,0,0,100,30.58,30.41,23,6,23,0.00
2013-3-27,70,59,48,99,87,75,0,0,100,30.50,30.34,15,3,15,0.00
2013-3-28,74,65,57,100,93,84,0,0,100,30.40,30.31,19,4,19,0.00
2013-3-29,77,69,61,100,96,89,0,0,100,30.37,30.24,17,3,17,0.00
2013-3-30,78,72,68,100,99,97,0,0,100,30.25,30.09,17,3,17,0.00
2013-3-31,83,71,64,100,98,92,0,0,100,30.09,29.96,24,4,24,0.57
2013-4-1,82,71,63,100,97,91,0,0,100,30.18,30.04,13,2,13,0.00
2013-4-2,77,70,65,100,98,93,0,0,100,30.13,29.93,18,4,18,0.18
2013-4-3,70,62,55,99,90,82,0,0,100,30.19,29.90,23,9,23,0.44
2013-4-4,60,56,54,87,84,81,0,0,100,30.28,30.12,24,9,24,0.01
2013-4-5,79,64,52,100,91,79,0,0,100,30.34,30.16,19,5,19,0.00
2013-4-6,77,69,61,100,96,89,0,0,100,30.22,30.08,19,3,19,0.00
2013-4-7,82,75,69,100,100,98,0,0,100,30.10,29.98,18,4,18,0.00
2013-4-8,82,76,72,100,100,100,0,0,100,30.01,29.92,25,6,25,0.00
2013-4-9,83,78,73,100,100,100,0,0,100,29.95,29.84,28,8,28,0.00
2013-4-10,82,77,58,100,98,85,0,0,100,29.95,29.81,33,7,33,0.79
2013-4-11,74,61,53,100,89,80,0,0,100,30.01,29.86,32,8,32,1.26
2013-4-12,83,68,57,100,94,84,0,0,100,30.10,29.97,12,1,12,0.00
2013-4-13,82,72,60,100,97,88,0,0,100,30.09,29.90,18,4,18,0.01
2013-4-14,85,74,68,100,99,96,0,0,100,29.90,29.77,15,2,15,0.00
2013-4-15,86,78,71,100,100,100,0,0,100,29.96,29.84,16,3,16,0.01
2013-4-16,84,79,77,100,100,100,0,0,100,30.07,29.94,20,5,20,0.01
2013-4-17,83,80,78,100,100,100,0,0,100,30.06,29.91,24,8,24,0.00
2013-4-18,83,74,58,100,96,85,0,0,100,30.14,29.80,31,10,31,0.11
2013-4-19,69,60,52,98,88,79,0,0,100,30.33,30.14,33,12,33,0.00
2013-4-20,73,61,50,100,89,76,0,0,100,30.35,30.19,17,2,17,0.00
2013-4-21,77,67,55,100,94,82,0,0,100,30.28,30.15,16,3,16,0.00
2013-4-22,81,71,60,100,96,88,0,0,100,30.21,30.05,17,2,17,0.00
2013-4-23,84,76,68,100,99,97,0,0,100,30.08,29.99,20,3,20,0.00
2013-4-24,77,66,54,100,93,81,0,0,100,30.31,30.03,29,9,29,0.21
2013-4-25,78,67,56,100,94,83,0,0,100,30.41,30.27,21,7,21,0.00
2013-4-26,80,74,69,100,100,98,0,0,100,30.32,30.20,16,4,16,0.00
2013-4-27,82,76,73,100,100,100,0,0,100,30.22,30.01,31,3,31,0.41
2013-4-28,83,75,68,100,99,97,0,0,100,30.13,29.97,31,4,31,0.30
2013-4-29,86,76,69,100,100,98,0,0,100,30.04,29.92,13,2,13,0.01
2013-4-30,84,77,74,100,100,100,0,0,100,29.96,29.83,15,2,15,0.00
2013-5-1,86,77,71,100,100,100,0,0,100,29.97,29.88,14,1,14,0.18
2013-5-2,80,71,58,100,98,86,0,0,100,30.22,29.95,31,10,31,0.00
2013-5-3,69,59,50,98,87,76,0,0,100,30.24,30.11,33,14,33,0.00
2013-5-4,80,66,51,100,91,78,0,0,100,30.19,29.94,24,6,24,0.00
2013-5-5,71,63,53,100,92,80,0,0,100,30.17,30.03,25,7,25,0.00
2013-5-6,80,67,53,100,93,80,0,0,100,30.18,30.03,15,2,15,0.00
2013-5-7,86,74,64,100,98,92,0,0,100,30.14,30.04,17,2,17,0.00
2013-5-8,82,74,65,100,98,93,0,0,100,30.16,30.08,18,3,18,0.00
2013-5-9,79,76,72,100,100,100,0,0,100,30.13,29.99,20,4,20,0.14
2013-5-10,78,72,67,100,99,96,0,0,100,30.18,29.95,24,5,24,3.90
2013-5-11,85,76,70,100,100,99,0,0,100,30.17,29.99,15,3,15,0.12
2013-5-12,83,75,67,100,99,96,0,0,100,30.28,30.16,16,5,16,0.03
2013-5-13,83,72,62,100,97,90,0,0,100,30.37,30.26,16,2,16,0.01
2013-5-14,86,75,65,100,98,93,0,0,100,30.32,30.20,15,2,15,0.00
2013-5-15,79,75,72,100,100,100,0,0,100,30.24,30.05,17,2,17,0.00
2013-5-16,83,77,72,100,100,100,0,0,100,30.07,29.94,17,3,17,0.00
2013-5-17,86,80,76,100,100,100,0,0,100,30.06,29.96,17,3,17,0.00
2013-5-18,89,81,77,100,100,100,0,0,100,30.07,30.01,18,4,18,0.01
2013-5-19,89,82,78,100,100,100,0,0,100,30.02,29.93,22,4,22,0.00
2013-5-20,88,83,80,100,100,100,0,0,100,30.01,29.90,19,4,19,0.00
2013-5-21,86,82,79,100,100,100,0,0,100,29.97,29.83,20,2,20,0.00
2013-5-22,89,81,72,100,100,100,0,0,100,30.01,29.89,20,3,20,0.00
2013-5-23,90,83,78,100,100,100,0,0,100,30.14,29.99,15,2,15,0.00
2013-5-24,92,84,77,100,100,100,0,0,100,30.20,30.09,16,2,16,0.01
2013-5-25,89,82,76,100,100,100,0,0,100,30.24,30.15,15,2,15,0.00
2013-5-26,89,83,79,100,100,100,0,0,100,30.18,30.11,17,2,17,0.00
2013-5-27,89,82,77,100,100,100,0,0,100,30.15,30.03,17,3,17,0.00
2013-5-28,89,83,79,100,100,100,0,0,100,30.07,29.98,19,4,19,0.00
2013-5-29,86,82,79,100,100,100,0,0,100,30.01,29.91,20,5,20,0.00
2013-5-30,88,84,80,100,100,100,0,0,100,29.99,29.92,18,6,20,0.01
2013-5-31,89,84,80,100,100,100,0,0,100,30.00,29.94,21,4,21,0.12
2013-6-1,91,85,81,100,100,100,0,0,100,29.99,29.93,21,4,21,0.00
2013-6-2,86,80,72,100,100,100,0,0,100,30.12,29.96,24,4,24,0.53
2013-6-3,90,82,73,100,100,100,0,0,100,30.03,29.89,13,4,13,0.00
2013-6-4,93,84,75,100,100,100,0,0,100,29.99,29.89,13,1,13,0.00
2013-6-5,93,84,77,100,100,100,0,0,100,29.97,29.84,10,2,12,0.00
2013-6-6,93,81,71,100,100,100,0,0,100,29.96,29.80,43,2,43,0.34
2013-6-7,87,77,71,100,100,100,0,0,100,30.02,29.91,13,5,13,0.00
2013-6-8,92,81,72,100,100,100,0,0,100,30.01,29.92,17,2,17,0.00
2013-6-9,90,79,74,100,100,100,0,0,100,30.04,29.92,19,1,19,0.34
2013-6-10,91,82,75,100,100,100,0,0,100,30.06,30.02,17,1,17,0.09
2013-6-11,94,86,79,100,100,100,0,0,100,30.11,30.05,14,1,14,0.00
2013-6-12,94,86,81,100,100,100,0,0,100,30.14,30.04,16,2,16,0.00
2013-6-13,97,87,79,100,100,100,0,0,100,30.13,29.96,16,2,16,0.00
2013-6-14,96,86,77,100,100,100,0,0,100,30.08,29.93,24,2,24,0.01
2013-6-15,94,84,76,100,100,100,0,0,100,30.06,29.98,14,1,14,0.05
2013-6-16,93,86,78,100,100,100,0,0,100,30.10,30.01,17,2,17,0.00
2013-6-17,94,86,80,100,100,100,0,0,100,30.08,29.97,21,4,21,0.00
2013-6-18,92,83,76,100,100,100,0,0,100,30.07,29.95,28,4,28,0.07
2013-6-19,91,83,76,100,100,100,0,0,100,30.07,30.00,21,2,21,0.05
2013-6-20,94,85,79,100,100,100,0,0,100,30.15,30.06,17,1,17,0.00
2013-6-21,94,86,79,100,100,100,0,0,100,30.16,30.09,14,2,14,0.00
2013-6-22,90,82,76,100,100,100,0,0,100,30.17,30.09,27,1,27,1.36
2013-6-23,92,87,83,100,100,100,0,0,100,30.09,30.02,17,2,17,0.44
2013-6-24,92,85,80,100,100,100,0,0,100,30.16,30.07,18,2,18,0.44
2013-6-25,93,86,81,100,100,100,0,0,100,30.13,30.03,17,2,17,0.00
2013-6-26,94,87,82,100,100,100,0,0,100,30.09,30.01,19,3,19,0.00
2013-6-27,96,86,78,100,100,100,0,0,100,30.10,29.97,14,2,14,0.00
2013-6-28,96,86,78,100,100,100,0,0,100,30.06,29.86,16,3,16,0.00
2013-6-29,100,88,79,100,100,100,0,0,100,29.92,29.75,20,4,20,0.00
2013-6-30,94,87,78,100,100,100,0,0,100,29.91,29.82,18,3,18,0.00
2013-7-1,86,80,71,100,100,100,0,0,100,30.01,29.91,16,4,16,0.00
2013-7-2,91,82,72,100,100,100,0,0,100,30.07,29.98,12,2,12,0.00
2013-7-3,91,81,72,100,100,100,0,0,100,30.09,29.97,14,2,14,0.00
2013-7-4,91,82,71,100,100,100,0,0,100,30.06,29.96,15,2,15,0.00
2013-7-5,94,83,74,100,100,100,0,0,100,30.05,29.93,20,4,21,0.00
2013-7-6,91,82,75,100,100,100,0,0,100,30.02,29.94,15,4,15,0.00
2013-7-7,88,82,78,100,100,100,0,0,100,30.09,29.99,20,3,20,0.05
2013-7-8,90,83,79,100,100,100,0,0,100,30.20,30.09,16,1,16,0.03
2013-7-9,94,86,78,100,100,100,0,0,100,30.22,30.12,16,2,16,0.00
2013-7-10,93,85,78,100,100,100,0,0,100,30.16,30.03,18,2,18,0.00
2013-7-11,94,84,78,100,100,100,0,0,100,30.09,29.97,15,2,15,0.01
2013-7-12,96,85,78,100,100,100,0,0,100,30.04,29.91,17,2,17,0.04
2013-7-13,95,85,77,100,100,100,0,0,100,30.02,29.90,14,1,14,0.00
2013-7-14,90,82,78,100,100,100,0,0,100,30.03,29.95,14,1,14,0.00
2013-7-15,90,83,76,100,100,100,0,0,100,30.15,29.98,19,4,19,0.20
2013-7-16,88,80,74,100,100,100,0,0,100,30.22,30.11,22,4,22,0.45
2013-7-17,88,80,75,100,100,100,0,0,100,30.27,30.17,15,2,15,0.18
2013-7-18,93,82,74,100,100,100,0,0,100,30.22,30.05,33,3,33,0.04
2013-7-19,89,78,74,100,100,100,0,0,100,30.15,30.03,26,2,26,0.04
2013-7-20,88,79,74,100,100,100,0,0,100,30.08,29.96,12,1,12,0.91
2013-7-21,87,81,75,100,100,100,0,0,100,30.10,30.01,29,3,29,1.54
2013-7-22,92,86,81,100,100,100,0,0,100,30.10,30.04,19,4,19,0.00
2013-7-23,93,85,80,100,100,100,0,0,100,30.12,29.99,19,5,19,0.00
2013-7-24,94,85,78,100,100,100,0,0,100,30.08,29.94,18,4,18,0.00
2013-7-25,94,86,80,100,100,100,0,0,100,30.10,30.02,15,2,15,0.00
2013-7-26,94,86,80,100,100,100,0,0,100,30.12,30.00,18,3,18,0.00
2013-7-27,94,84,78,100,100,100,0,0,100,30.04,29.92,20,5,20,2.88
2013-7-28,92,83,77,100,100,100,0,0,100,30.07,29.98,15,2,15,0.01
2013-7-29,94,86,80,100,100,100,0,0,100,30.17,30.06,16,2,16,0.00
2013-7-30,93,85,79,100,100,100,0,0,100,30.20,30.11,16,2,16,0.00
2013-7-31,95,85,78,100,100,100,0,0,100,30.17,30.03,16,2,16,0.00
2013-8-1,97,86,78,100,100,100,0,0,100,30.10,29.95,13,2,13,0.00
2013-8-2,95,86,79,100,100,100,0,0,100,30.06,29.98,14,1,14,0.00
2013-8-3,96,86,80,100,100,100,0,0,100,30.12,30.04,15,2,15,0.00
2013-8-4,95,87,80,100,100,100,0,0,100,30.15,30.05,19,2,19,0.00
2013-8-5,95,86,80,100,100,100,0,0,100,30.13,30.01,17,3,17,0.00
2013-8-6,82,80,79,100,100,100,0,0,100,30.05,30.01,9,1,9,0.00
2013-8-7,95,88,82,100,100,100,0,0,100,30.00,29.93,18,4,18,0.00
2013-8-8,95,85,78,100,100,100,0,0,100,30.01,29.93,14,1,14,0.00
2013-8-9,98,87,78,100,100,100,0,0,100,30.04,29.93,15,1,15,0.00
2013-8-10,93,84,80,100,100,100,0,0,100,30.11,30.02,17,2,17,0.01
2013-8-11,91,84,77,100,100,100,0,0,100,30.13,30.08,17,2,17,0.01
2013-8-12,94,87,80,100,100,100,0,0,100,30.14,30.04,16,2,16,0.00
2013-8-13,97,87,80,100,100,100,0,0,100,30.11,29.97,20,4,20,0.00
2013-8-14,92,84,77,100,100,100,0,0,100,30.07,29.96,21,3,21,0.20
2013-8-15,85,78,76,100,100,100,0,0,100,30.10,29.98,13,2,13,0.01
2013-8-16,92,83,74,100,100,100,0,0,100,30.07,29.96,14,2,14,0.00
2013-8-17,90,81,70,100,100,99,0,0,100,30.09,29.98,21,6,21,0.00
2013-8-18,92,81,71,100,100,100,0,0,100,30.09,30.02,13,3,13,0.00
2013-8-19,94,83,74,100,100,100,0,0,100,30.10,29.99,15,2,15,0.00
2013-8-20,86,80,74,100,100,100,0,0,100,30.11,30.03,12,2,12,0.00
2013-8-21,92,83,75,100,100,100,0,0,100,30.15,30.06,14,3,14,0.01
2013-8-22,92,85,77,100,100,100,0,0,100,30.15,30.01,14,2,14,0.00
2013-8-23,95,85,78,100,100,100,0,0,100,30.08,29.94,21,2,21,0.00
2013-8-24,93,84,77,100,100,100,0,0,100,30.10,30.00,18,5,18,0.00
2013-8-25,85,80,77,100,100,100,0,0,100,30.19,30.09,23,7,23,0.04
2013-8-26,79,77,75,100,100,100,0,0,100,30.23,30.14,18,3,18,0.51
2013-8-27,91,80,75,100,100,100,0,0,100,30.20,30.10,10,2,10,0.00